Time,TemperatureF,DewpointF,PressureIn,WindDirection,WindDirectionDegrees,WindSpeedMPH,WindSpeedGustMPH,Humidity,HourlyPrecipIn,Conditions,Clouds,dailyrainin,SolarRadiationWatts/m^2,SoftwareType,DateUTC
2013-08-24 00:11:00,63.7,56.0,30.17,East,85,0.0,0.0,75,0.00,,,0.00,0,weatherlink.com 1.10,2013-08-24 04:11:00,
2013-08-24 00:26:00,63.3,56.0,30.17,East,85,0.0,0.0,76,0.00,,,0.00,0,weatherlink.com 1.10,2013-08-24 04:26:00,
2013-08-24 00:41:00,62.9,56.0,30.18,East,85,0.0,0.0,77,0.00,,,0.00,0,weatherlink.com 1.10,2013-08-24 04:41:00,
2013-08-24 00:56:00,62.5,56.0,30.18,East,85,0.0,0.0,78,0.00,,,0.00,0,weatherlink.com 1.10,2013-08-24 04:56:00,
2013-08-24 01:11:00,62.2,55.0,30.18,East,85,0.0,0.0,78,0.00,,,0.00,0,weatherlink.com 1.10,2013-08-24 05:11:00,
2013-08-24 01:26:00,62.0,56.0,30.18,East,84,0.0,0.0,80,0.00,,,0.00,0,weatherlink.com 1.10,2013-08-24 05:26:00,
2013-08-24 01:41:00,61.7,56.0,30.18,East,84,0.0,0.0,80,0.00,,,0.00,0,weatherlink.com 1.10,2013-08-24 05:41:00,
2013-08-24 01:56:00,61.5,55.0,30.19,East,85,0.0,0.0,80,0.00,,,0.00,0,weatherlink.com 1.10,2013-08-24 05:56:00,
2013-08-24 02:11:00,61.3,55.0,30.19,East,85,0.0,0.0,81,0.00,,,0.00,0,weatherlink.com 1.10,2013-08-24 06:11:00,
2013-08-24 02:26:00,61.1,56.0,30.19,East,85,0.0,0.0,82,0.00,,,0.00,0,weatherlink.com 1.10,2013-08-24 06:26:00,
2013-08-24 02:41:00,60.7,55.0,30.19,East,85,0.0,0.0,81,0.00,,,0.00,0,weatherlink.com 1.10,2013-08-24 06:41:00,
2013-08-24 02:56:00,60.3,55.0,30.19,East,84,0.0,0.0,82,0.00,,,0.00,0,weatherlink.com 1.10,2013-08-24 06:56:00,
2013-08-24 03:11:00,60.0,55.0,30.19,East,84,0.0,0.0,83,0.00,,,0.00,0,weatherlink.com 1.10,2013-08-24 07:11:00,
2013-08-24 03:26:00,59.8,55.0,30.20,East,84,0.0,0.0,84,0.00,,,0.00,0,weatherlink.com 1.10,2013-08-24 07:26:00,
2013-08-24 03:41:00,59.5,55.0,30.20,East,84,0.0,0.0,84,0.00,,,0.00,0,weatherlink.com 1.10,2013-08-24 07:41:00,
2013-08-24 03:56:00,59.2,55.0,30.20,East,85,0.0,0.0,85,0.00,,,0.00,0,weatherlink.com 1.10,2013-08-24 07:56:00,
2013-08-24 04:11:00,59.0,55.0,30.21,East,84,0.0,0.0,85,0.00,,,0.00,0,weatherlink.com 1.10,2013-08-24 08:11:00,
2013-08-24 04:26:00,59.0,55.0,30.22,East,84,0.0,0.0,86,0.00,,,0.00,0,weatherlink.com 1.10,2013-08-24 08:26:00,
2013-08-24 04:41:00,58.6,55.0,30.22,East,84,0.0,0.0,86,0.00,,,0.00,0,weatherlink.com 1.10,2013-08-24 08:41:00,
2013-08-24 04:56:00,58.2,54.0,30.22,East,84,0.0,0.0,86,0.00,,,0.00,0,weatherlink.com 1.10,2013-08-24 08:56:00,
2013-08-24 05:11:00,57.9,54.0,30.23,East,84,0.0,0.0,87,0.00,,,0.00,0,weatherlink.com 1.10,2013-08-24 09:11:00,
2013-08-24 05:26:00,57.6,54.0,30.23,East,84,0.0,0.0,87,0.00,,,0.00,0,weatherlink.com 1.10,2013-08-24 09:26:00,
2013-08-24 05:41:00,57.3,54.0,30.23,East,84,0.0,0.0,87,0.00,,,0.00,0,weatherlink.com 1.10,2013-08-24 09:41:00,
2013-08-24 05:56:00,57.1,54.0,30.23,East,84,0.0,0.0,88,0.00,,,0.00,0,weatherlink.com 1.10,2013-08-24 09:56:00,
2013-08-24 06:11:00,56.9,53.0,30.24,East,84,0.0,0.0,88,0.00,,,0.00,0,weatherlink.com 1.10,2013-08-24 10:11:00,
2013-08-24 06:26:00,56.7,53.0,30.25,East,84,0.0,0.0,88,0.00,,,0.00,0,weatherlink.com 1.10,2013-08-24 10:26:00,
2013-08-24 06:41:00,56.5,53.0,30.25,East,85,0.0,0.0,89,0.00,,,0.00,0,weatherlink.com 1.10,2013-08-24 10:41:00,
2013-08-24 06:56:00,56.3,53.0,30.25,East,84,0.0,0.0,89,0.00,,,0.00,7,weatherlink.com 1.10,2013-08-24 10:56:00,
2013-08-24 07:12:00,56.2,53.0,30.25,East,85,0.0,0.0,89,0.00,,,0.00,14,weatherlink.com 1.10,2013-08-24 11:12:00,
2013-08-24 07:27:00,56.2,53.0,30.26,East,84,0.0,0.0,89,0.00,,,0.00,21,weatherlink.com 1.10,2013-08-24 11:27:00,
2013-08-24 07:42:00,56.3,54.0,30.27,East,84,0.0,0.0,90,0.00,,,0.00,21,weatherlink.com 1.10,2013-08-24 11:42:00,
2013-08-24 07:57:00,56.5,54.0,30.27,East,84,0.0,2.0,90,0.00,,,0.00,88,weatherlink.com 1.10,2013-08-24 11:57:00,
2013-08-24 08:12:00,57.7,55.0,30.27,East,85,0.0,2.0,91,0.00,,,0.00,139,weatherlink.com 1.10,2013-08-24 12:12:00,
2013-08-24 08:27:00,59.0,56.0,30.28,East,85,0.0,3.0,91,0.00,,,0.00,202,weatherlink.com 1.10,2013-08-24 12:27:00,
2013-08-24 08:42:00,60.9,58.0,30.28,East,85,0.0,2.0,90,0.00,,,0.00,251,weatherlink.com 1.10,2013-08-24 12:42:00,
2013-08-24 08:57:00,63.0,59.0,30.28,East,85,3.0,3.0,86,0.00,,,0.00,302,weatherlink.com 1.10,2013-08-24 12:57:00,
2013-08-24 09:12:00,65.0,59.0,30.28,East,84,0.0,5.0,80,0.00,,,0.00,350,weatherlink.com 1.10,2013-08-24 13:12:00,
2013-08-24 09:27:00,67.4,59.0,30.28,East,88,0.0,2.0,75,0.00,,,0.00,403,weatherlink.com 1.10,2013-08-24 13:27:00,
2013-08-24 09:42:00,69.0,59.0,30.28,East,87,1.0,3.0,71,0.00,,,0.00,448,weatherlink.com 1.10,2013-08-24 13:42:00,
2013-08-24 09:57:00,69.9,60.0,30.28,East,93,0.0,2.0,71,0.00,,,0.00,489,weatherlink.com 1.10,2013-08-24 13:57:00,
2013-08-24 10:12:00,71.1,60.0,30.28,SSE,150,0.0,4.0,68,0.00,,,0.00,531,weatherlink.com 1.10,2013-08-24 14:12:00,
2013-08-24 10:27:00,72.3,59.0,30.27,SSE,156,0.0,3.0,64,0.00,,,0.00,580,weatherlink.com 1.10,2013-08-24 14:27:00,
2013-08-24 10:42:00,74.4,60.0,30.27,SSE,150,1.0,2.0,62,0.00,,,0.00,619,weatherlink.com 1.10,2013-08-24 14:42:00,
2013-08-24 10:57:00,75.5,61.0,30.27,SSE,160,0.0,3.0,60,0.00,,,0.00,656,weatherlink.com 1.10,2013-08-24 14:57:00,
2013-08-24 11:12:00,76.1,59.0,30.27,SSW,207,0.0,6.0,56,0.00,,,0.00,693,weatherlink.com 1.10,2013-08-24 15:12:00,
2013-08-24 11:28:00,76.9,58.0,30.27,South,180,0.0,4.0,53,0.00,,,0.00,728,weatherlink.com 1.10,2013-08-24 15:28:00,
2013-08-24 11:43:00,78.0,58.0,30.27,SSE,159,2.0,6.0,50,0.00,,,0.00,758,weatherlink.com 1.10,2013-08-24 15:43:00,
2013-08-24 11:58:00,78.2,56.0,30.27,West,259,4.0,7.0,47,0.00,,,0.00,780,weatherlink.com 1.10,2013-08-24 15:58:00,
2013-08-24 12:13:00,78.3,56.0,30.27,WSW,256,0.0,7.0,47,0.00,,,0.00,817,weatherlink.com 1.10,2013-08-24 16:13:00,
2013-08-24 12:28:00,79.1,56.0,30.26,WSW,243,1.0,8.0,45,0.00,,,0.00,840,weatherlink.com 1.10,2013-08-24 16:28:00,
2013-08-24 12:43:00,79.5,57.0,30.26,WSW,248,4.0,9.0,46,0.00,,,0.00,867,weatherlink.com 1.10,2013-08-24 16:43:00,
2013-08-24 12:58:00,79.3,57.0,30.27,WNW,294,1.0,5.0,46,0.00,,,0.00,824,weatherlink.com 1.10,2013-08-24 16:58:00,
2013-08-24 13:13:00,79.7,57.0,30.26,WSW,240,1.0,6.0,46,0.00,,,0.00,860,weatherlink.com 1.10,2013-08-24 17:13:00,
2013-08-24 13:28:00,80.5,57.0,30.26,WSW,252,0.0,7.0,45,0.00,,,0.00,858,weatherlink.com 1.10,2013-08-24 17:28:00,
2013-08-24 13:43:00,81.4,56.0,30.25,West,261,3.0,7.0,42,0.00,,,0.00,861,weatherlink.com 1.10,2013-08-24 17:43:00,
2013-08-24 13:58:00,81.6,56.0,30.25,WSW,238,1.0,9.0,42,0.00,,,0.00,856,weatherlink.com 1.10,2013-08-24 17:58:00,
2013-08-24 14:13:00,82.0,57.0,30.25,WSW,239,4.0,6.0,42,0.00,,,0.00,854,weatherlink.com 1.10,2013-08-24 18:13:00,
2013-08-24 14:28:00,82.5,56.0,30.25,WSW,237,3.0,7.0,41,0.00,,,0.00,844,weatherlink.com 1.10,2013-08-24 18:28:00,
2013-08-24 14:43:00,82.2,56.0,30.25,WSW,253,0.0,9.0,41,0.00,,,0.00,835,weatherlink.com 1.10,2013-08-24 18:43:00,
2013-08-24 14:58:00,82.4,56.0,30.25,WSW,250,0.0,4.0,40,0.00,,,0.00,814,weatherlink.com 1.10,2013-08-24 18:58:00,
2013-08-24 15:13:00,82.7,57.0,30.24,WSW,248,0.0,7.0,42,0.00,,,0.00,795,weatherlink.com 1.10,2013-08-24 19:13:00,
2013-08-24 15:28:00,83.0,58.0,30.24,ENE,78,0.0,7.0,43,0.00,,,0.00,770,weatherlink.com 1.10,2013-08-24 19:28:00,
2013-08-24 15:43:00,82.9,57.0,30.24,SW,218,4.0,9.0,42,0.00,,,0.00,742,weatherlink.com 1.10,2013-08-24 19:43:00,
2013-08-24 15:58:00,83.6,58.0,30.23,West,269,3.0,9.0,42,0.00,,,0.00,708,weatherlink.com 1.10,2013-08-24 19:58:00,
2013-08-24 16:13:00,82.9,57.0,30.23,WSW,255,2.0,8.0,41,0.00,,,0.00,684,weatherlink.com 1.10,2013-08-24 20:13:00,
2013-08-24 16:28:00,83.3,58.0,30.23,SW,214,0.0,5.0,42,0.00,,,0.00,645,weatherlink.com 1.10,2013-08-24 20:28:00,
2013-08-24 16:43:00,84.0,58.0,30.23,SW,235,3.0,10.0,42,0.00,,,0.00,617,weatherlink.com 1.10,2013-08-24 20:43:00,
2013-08-24 16:58:00,84.0,58.0,30.22,SW,228,4.0,8.0,42,0.00,,,0.00,580,weatherlink.com 1.10,2013-08-24 20:58:00,
2013-08-24 17:13:00,84.0,58.0,30.23,SW,233,0.0,3.0,42,0.00,,,0.00,540,weatherlink.com 1.10,2013-08-24 21:13:00,
2013-08-24 17:28:00,83.6,58.0,30.22,SSE,157,0.0,8.0,42,0.00,,,0.00,501,weatherlink.com 1.10,2013-08-24 21:28:00,
2013-08-24 17:43:00,83.7,58.0,30.22,SW,224,2.0,8.0,42,0.00,,,0.00,450,weatherlink.com 1.10,2013-08-24 21:43:00,
2013-08-24 17:58:00,83.5,57.0,30.22,West,263,0.0,5.0,41,0.00,,,0.00,396,weatherlink.com 1.10,2013-08-24 21:58:00,
2013-08-24 18:13:00,83.7,58.0,30.21,WSW,249,3.0,5.0,42,0.00,,,0.00,366,weatherlink.com 1.10,2013-08-24 22:13:00,
2013-08-24 18:28:00,83.4,58.0,30.21,SW,217,3.0,6.0,42,0.00,,,0.00,316,weatherlink.com 1.10,2013-08-24 22:28:00,
2013-08-24 18:43:00,83.1,58.0,30.21,WSW,242,0.0,7.0,43,0.00,,,0.00,255,weatherlink.com 1.10,2013-08-24 22:43:00,
2013-08-24 18:58:00,82.8,58.0,30.21,WSW,238,2.0,9.0,43,0.00,,,0.00,213,weatherlink.com 1.10,2013-08-24 22:58:00,
2013-08-24 19:13:00,82.5,58.0,30.21,WSW,237,0.0,7.0,44,0.00,,,0.00,167,weatherlink.com 1.10,2013-08-24 23:13:00,
2013-08-24 19:28:00,82.2,59.0,30.20,West,262,0.0,3.0,45,0.00,,,0.00,113,weatherlink.com 1.10,2013-08-24 23:28:00,
2013-08-24 19:43:00,82.0,59.0,30.21,WSW,250,0.0,6.0,45,0.00,,,0.00,62,weatherlink.com 1.10,2013-08-24 23:43:00,
2013-08-24 19:58:00,81.4,59.0,30.21,WSW,249,0.0,1.0,47,0.00,,,0.00,25,weatherlink.com 1.10,2013-08-24 23:58:00,
2013-08-24 20:13:00,80.4,60.0,30.21,WSW,250,0.0,1.0,50,0.00,,,0.00,11,weatherlink.com 1.10,2013-08-25 00:13:00,
2013-08-24 20:28:00,79.1,60.0,30.21,WSW,250,0.0,0.0,52,0.00,,,0.00,0,weatherlink.com 1.10,2013-08-25 00:28:00,
2013-08-24 20:43:00,77.6,60.0,30.21,WSW,250,0.0,0.0,55,0.00,,,0.00,0,weatherlink.com 1.10,2013-08-25 00:43:00,
2013-08-24 20:58:00,76.2,60.0,30.21,WSW,250,0.0,0.0,57,0.00,,,0.00,0,weatherlink.com 1.10,2013-08-25 00:58:00,
2013-08-24 21:13:00,74.7,59.0,30.21,WSW,249,0.0,0.0,59,0.00,,,0.00,0,weatherlink.com 1.10,2013-08-25 01:13:00,
2013-08-24 21:28:00,73.6,59.0,30.22,WSW,249,0.0,0.0,61,0.00,,,0.00,0,weatherlink.com 1.10,2013-08-25 01:28:00,
2013-08-24 21:43:00,72.7,59.0,30.22,WSW,249,0.0,0.0,63,0.00,,,0.00,0,weatherlink.com 1.10,2013-08-25 01:43:00,
2013-08-24 21:58:00,71.8,59.0,30.22,WSW,250,0.0,0.0,64,0.00,,,0.00,0,weatherlink.com 1.10,2013-08-25 01:58:00,
2013-08-24 22:13:00,71.0,59.0,30.22,WSW,250,0.0,0.0,66,0.00,,,0.00,0,weatherlink.com 1.10,2013-08-25 02:13:00,
2013-08-24 22:28:00,70.2,59.0,30.22,WSW,250,0.0,0.0,67,0.00,,,0.00,0,weatherlink.com 1.10,2013-08-25 02:28:00,
2013-08-24 22:43:00,69.5,58.0,30.22,WSW,250,0.0,0.0,68,0.00,,,0.00,0,weatherlink.com 1.10,2013-08-25 02:43:00,
2013-08-24 22:58:00,69.0,58.0,30.23,WSW,250,0.0,0.0,69,0.00,,,0.00,0,weatherlink.com 1.10,2013-08-25 02:58:00,
2013-08-24 23:13:00,68.7,59.0,30.22,WSW,250,0.0,1.0,70,0.00,,,0.00,0,weatherlink.com 1.10,2013-08-25 03:13:00,
2013-08-24 23:28:00,68.5,58.0,30.23,WSW,249,0.0,2.0,70,0.00,,,0.00,0,weatherlink.com 1.10,2013-08-25 03:28:00,
2013-08-24 23:43:00,68.5,58.0,30.23,WSW,250,0.0,0.0,70,0.00,,,0.00,0,weatherlink.com 1.10,2013-08-25 03:43:00,
2013-08-24 23:58:00,68.3,59.0,30.22,WSW,250,0.0,0.0,71,0.00,,,0.00,0,weatherlink.com 1.10,2013-08-25 03:58:00,